[[{"header":{"parameterUnit":"m.s-1","parameterCategory":1,"la1":30.2991,"la2":30.254,"lo1":-89.0895,"lo2":-89.0444,"dy":0.0017,"dx":0.0017,"nx":28,"ny":28,"refTime":"2024-03-28T09:00:00:Z","depth":0,"parameterNumber":2,"parameterNumberName":"U-component_of_WINDS"},"data":[0,0,0,0,0,0,0,0,0,0,0,0,0,0,0,0,0,0,0,0,0,0,0,0,0,0,0,0,0,0,0,0,0,0,0,0,0,0,0,0,0,0,0,0,0,0,0,0,0,0,0,0,0,0,0,0,0,0,0.3523,0.3523,0,0.3493,0.3493,0.3492,0.3462,0.3461,0.3461,0.346,0.3429,0.3429,0.3428,0,0,0,0,0,0,0,0,0,0,0,0,0,0.3553,0.3552,0.3523,0.3523,0.3523,0.3493,0.3493,0.3492,0.3462,0.3461,0.3461,0.346,0.3429,0.3429,0.3428,0,0,0,0,0,0,0,0,0,0,0,0,0,0.3533,0.3552,0.3523,0.3504,0.3502,0.3493,0.3493,0.3492,0.3462,0.3461,0.3461,0.346,0.343,0.3429,0.3428,0.3437,0,0,0.3426,0.3426,0,0,0,0,0,0,0,0,0.3534,0.3532,0.3507,0.3505,0.3503,0.3481,0.3492,0.3474,0.3462,0.3477,0.346,0.346,0.3447,0.3445,0.344,0.3435,0.3434,0.3426,0.3426,0.3426,0.3425,0,0,0,0,0,0,0,0.3536,0.3533,0.3511,0.3507,0.3504,0.3496,0.3492,0.3488,0.3466,0.3476,0.3473,0.347,0.3446,0.3441,0.344,0.3434,0.3426,0.3426,0.3425,0.3425,0.3432,0.3432,0,0,0,0,0,0,0.354,0.3534,0.3512,0.351,0.3517,0.3496,0.3492,0.3488,0.3466,0.3462,0.3471,0.3469,0.3443,0.344,0.3438,0.3445,0.3426,0.3425,0.3425,0.3431,0.3432,0.3432,0,0,0,0,0,0,0.3541,0.3538,0.3513,0.3522,0.3518,0.3496,0.3492,0.3488,0.3484,0.3462,0.3458,0.347,0.3442,0.3439,0.3437,0.3444,0.3425,0.3424,0.343,0.3431,0.3432,0.346,0,0,0,0,0,0,0.3542,0.3539,0.3542,0.3522,0.3518,0.3513,0.3493,0.3488,0.3483,0.348,0.3461,0.3457,0.3441,0.3438,0.3436,0.3442,0.3424,0.343,0.3431,0.3432,0.3458,0.3462,0.3464,0,0,0,0,0,0.3543,0.3552,0.3543,0.354,0.3522,0.3514,0.3511,0.3493,0.3483,0.3486,0.3472,0.3457,0.3443,0.3438,0.3436,0.3442,0.3429,0.343,0.3432,0.3457,0.3461,0.3464,0,0,0,0,0,0,0.3574,0.3549,0.3538,0.3541,0.353,0.3509,0.3512,0.3498,0.349,0.3487,0.3465,0.3461,0.3461,0.3451,0.3446,0.3448,0.3434,0.3435,0.3454,0.3458,0.3461,0.3463,0.3423,0,0,0,0,0,0.3581,0.3577,0.3555,0.3559,0.3554,0.3534,0.353,0.3517,0.3504,0.3499,0.3485,0.3473,0.3465,0.3461,0.3453,0.3457,0.3451,0.346,0.3463,0.3465,0.3466,0.3465,0.3468,0.3436,0.3436,0.3436,0,0,0.3595,0.3581,0.358,0.3565,0.3555,0.355,0.353,0.3527,0.3523,0.3499,0.3495,0.3484,0.3469,0.3469,0.3469,0.3461,0.3474,0.3467,0.3469,0.3468,0.3467,0.347,0.3472,0.3437,0.3437,0.3437,0,0,0.3619,0.3609,0.361,0.36,0.3585,0.3571,0.3571,0.3552,0.3543,0.354,0.3521,0.3516,0.3504,0.3493,0.3486,0.3505,0.349,0.3503,0.3519,0.3518,0.352,0.3523,0.3528,0.353,0.3504,0.3504,0.3504,0,0.3639,0.3632,0.3613,0.361,0.3603,0.3581,0.3582,0.3573,0.3555,0.3551,0.3543,0.3526,0.3515,0.3511,0.3515,0.3511,0.351,0.3505,0.3522,0.3524,0.3525,0.353,0.3532,0.3505,0.3505,0.3505,0.3505,0,0.3657,0.3652,0.3655,0.3638,0.3632,0.3631,0.3611,0.3607,0.3594,0.3581,0.3576,0.3561,0.3549,0.3548,0.3536,0.3542,0.3537,0.3526,0.3512,0.353,0.3534,0.3536,0.3508,0.3507,0.3507,0.3506,0,0,0.3699,0.3671,0.3672,0.3664,0.3644,0.364,0.3637,0.3625,0.3621,0.361,0.3606,0.3596,0.3585,0.3577,0.3563,0.3563,0.3576,0.3551,0.3551,0.3555,0.358,0.3588,0.3591,0.3567,0.3567,0.3567,0.3581,0,0.3719,0.3713,0.3695,0.3694,0.3689,0.3667,0.3664,0.3652,0.3639,0.3632,0.3618,0.361,0.3597,0.3592,0.359,0.3575,0.3581,0.3574,0.3562,0.3562,0.3566,0.3593,0.3601,0.3615,0.3582,0.3583,0.3583,0,0.3741,0.373,0.3729,0.3708,0.3705,0.3703,0.369,0.3684,0.3668,0.3659,0.365,0.3634,0.3629,0.3616,0.3608,0.3604,0.3598,0.3589,0.3589,0.3587,0.3573,0.359,0.3619,0.3621,0.3585,0.3585,0.3585,0,0.377,0.3756,0.3752,0.3746,0.3722,0.3721,0.3711,0.3695,0.3688,0.3676,0.3672,0.366,0.3653,0.3643,0.3624,0.3617,0.3617,0.3604,0.3608,0.3609,0.3609,0.3609,0.3637,0.3607,0.3607,0.3607,0.3607,0,0.3793,0.3793,0.3765,0.3763,0.3761,0.374,0.3739,0.3727,0.3713,0.3707,0.3688,0.3683,0.3659,0.3651,0.3636,0.363,0.3628,0.3619,0.3615,0.362,0.3621,0.3616,0.3614,0.3608,0.3608,0.3607,0.3607,0,0.3825,0.3807,0.3802,0.3779,0.3773,0.3773,0.3754,0.375,0.3736,0.3729,0.3726,0.3704,0.3693,0.3674,0.3658,0.3648,0.3645,0.3638,0.365,0.3647,0.3653,0.3652,0.3677,0.3678,0.3649,0.3649,0.365,0,0.3841,0.384,0.3817,0.3812,0.3802,0.3795,0.3787,0.3766,0.376,0.3741,0.374,0.3727,0.3716,0.37,0.3682,0.3669,0.3662,0.3671,0.366,0.3664,0.366,0.366,0.3659,0.3674,0.3674,0.3674,0.3675,0,0.3869,0.386,0.385,0.3837,0.3829,0.3818,0.3806,0.3803,0.3779,0.3772,0.3761,0.3752,0.3735,0.3723,0.3707,0.3696,0.3681,0.3678,0.3679,0.3684,0.369,0.3685,0.3656,0.3678,0.3678,0.3677,0.3677,0.3677,0.3892,0.389,0.3873,0.3863,0.3851,0.384,0.3835,0.382,0.3811,0.3795,0.3783,0.3773,0.3755,0.3733,0.3722,0.3713,0.3706,0.3707,0.3707,0.3707,0.3708,0.3692,0.371,0.371,0.371,0.371,0.371,0,0.3918,0.3906,0.3897,0.388,0.3872,0.3859,0.3844,0.3838,0.3829,0.3814,0.3804,0.379,0.3778,0.3758,0.3744,0.374,0.3733,0.3737,0.3736,0.3734,0.3716,0.3717,0.3743,0.3743,0.3743,0.3743,0.3743,0.3743,0.3931,0.3926,0.3914,0.3902,0.389,0.388,0.3872,0.3861,0.3849,0.3835,0.3824,0.3812,0.3795,0.3779,0.3766,0.3761,0.3756,0.3762,0.3754,0.3738,0.3735,0.3732,0.3733,0.3762,0.3762,0.3772,0.3773,0.3773]},{"header":{"parameterUnit":"m.s-1","parameterCategory":1,"la1":30.2991,"la2":30.254,"lo1":-89.0895,"lo2":-89.0444,"dy":0.0017,"dx":0.0017,"nx":28,"ny":28,"refTime":"2024-03-28T09:00:00:Z","depth":0,"parameterNumber":3,"parameterNumberName":"V-component_of_WINDS"},"data":[0,0,0,0,0,0,0,0,0,0,0,0,0,0,0,0,0,0,0,0,0,0,0,0,0,0,0,0,0,0,0,0,0,0,0,0,0,0,0,0,0,0,0,0,0,0,0,0,0,0,0,0,0,0,0,0,0,0,5.7943,5.7944,0,5.8023,5.8024,5.8025,5.7956,5.7953,5.795,5.7948,5.8024,5.8028,5.8033,0,0,0,0,0,0,0,0,0,0,0,0,0,5.7723,5.7727,5.7943,5.7944,5.7945,5.8023,5.8024,5.8025,5.7956,5.7953,5.795,5.7946,5.8022,5.8028,5.8033,0,0,0,0,0,0,0,0,0,0,0,0,0,5.7812,5.7728,5.7943,5.792,5.7919,5.8023,5.8024,5.8026,5.7957,5.7953,5.7949,5.7945,5.802,5.8027,5.8034,5.8163,0,0,5.8056,5.8059,0,0,0,0,0,0,0,0,5.7807,5.782,5.7923,5.7922,5.7921,5.7975,5.7974,5.8071,5.7958,5.7943,5.7948,5.7943,5.8011,5.8018,5.8042,5.8166,5.8169,5.8056,5.806,5.8063,5.8065,0,0,0,0,0,0,0,5.7801,5.7816,5.7974,5.7924,5.7923,5.7904,5.7912,5.7992,5.7999,5.7944,5.7939,5.795,5.8009,5.8036,5.8044,5.817,5.8056,5.8062,5.8067,5.8069,5.84,5.8404,0,0,0,0,0,0,5.7798,5.7812,5.7972,5.7977,5.7853,5.7911,5.792,5.7962,5.7998,5.8,5.7953,5.7946,5.8026,5.8036,5.8046,5.8196,5.8063,5.807,5.8074,5.8395,5.8401,5.8406,0,0,0,0,0,0,5.7794,5.7813,5.7969,5.7893,5.7911,5.7919,5.7967,5.7966,5.7992,5.8006,5.8006,5.7979,5.8023,5.8036,5.8134,5.8198,5.8073,5.8079,5.839,5.8397,5.8403,5.85,0,0,0,0,0,0,5.7788,5.7812,5.7863,5.7895,5.7916,5.8058,5.7971,5.7971,5.8005,5.7997,5.803,5.8032,5.8021,5.8124,5.8141,5.8206,5.8085,5.8384,5.8393,5.8401,5.8491,5.8509,5.8525,0,0,0,0,0,5.778,5.7886,5.7866,5.7885,5.798,5.8062,5.8073,5.806,5.8011,5.806,5.8068,5.8031,5.8189,5.8134,5.8153,5.8221,5.838,5.839,5.84,5.8483,5.8506,5.8524,0,0,0,0,0,0,5.786,5.789,5.7868,5.7988,5.8023,5.805,5.8112,5.8085,5.8133,5.8123,5.8102,5.811,5.8213,5.8227,5.8165,5.8345,5.8276,5.829,5.8333,5.8354,5.837,5.8364,5.8091,0,0,0,0,0,5.7892,5.7958,5.798,5.8083,5.8102,5.8105,5.814,5.8127,5.8161,5.8175,5.819,5.8223,5.828,5.8318,5.8371,5.8493,5.8497,5.8548,5.8565,5.8579,5.8591,5.8654,5.8676,5.8439,5.8439,5.8439,0,0,5.7958,5.7982,5.8025,5.81,5.8126,5.8192,5.8117,5.8191,5.8239,5.8185,5.8278,5.8291,5.8326,5.8436,5.8484,5.845,5.8658,5.8592,5.8603,5.8608,5.8666,5.8689,5.8709,5.8446,5.8445,5.8444,0,0,5.8111,5.8138,5.8226,5.8253,5.8293,5.8294,5.8315,5.8346,5.8353,5.8446,5.8406,5.8462,5.8561,5.8587,5.8613,5.8775,5.8741,5.8793,5.8881,5.8942,5.896,5.8976,5.9032,5.9052,5.8805,5.8805,5.8806,0,5.8188,5.8288,5.8274,5.8351,5.8384,5.834,5.8427,5.8453,5.8508,5.853,5.8491,5.8613,5.8634,5.8748,5.8787,5.8811,5.8832,5.8788,5.8959,5.8975,5.899,5.9042,5.9064,5.8811,5.8811,5.881,5.8809,0,5.8378,5.8449,5.8515,5.857,5.861,5.8692,5.8687,5.8729,5.8712,5.8716,5.8809,5.8833,5.8889,5.8915,5.8899,5.9026,5.9003,5.8962,5.8892,5.9019,5.9067,5.9088,5.882,5.8818,5.8816,5.8814,0,0,5.8585,5.8631,5.8655,5.8679,5.8719,5.8771,5.8849,5.8906,5.894,5.8979,5.9042,5.9126,5.9088,5.9118,5.9104,5.9158,5.9281,5.911,5.911,5.9139,5.9419,5.9448,5.9472,5.9259,5.9263,5.9266,5.9415,0,5.8738,5.8877,5.8865,5.8995,5.9057,5.9015,5.9083,5.9113,5.9118,5.917,5.9174,5.9234,5.918,5.9198,5.9249,5.9255,5.9337,5.9245,5.9315,5.9317,5.9306,5.9498,5.9529,5.9669,5.9434,5.9438,5.944,0,5.8936,5.8983,5.9119,5.9147,5.9173,5.9235,5.9284,5.9335,5.9367,5.9367,5.94,5.9376,5.9451,5.9381,5.9482,5.942,5.9448,5.9455,5.946,5.9464,5.9385,5.9505,5.9713,5.9734,5.947,5.9468,5.9466,0,5.907,5.9167,5.926,5.9282,5.9318,5.9361,5.9378,5.9406,5.944,5.9482,5.9503,5.9554,5.9581,5.9619,5.9608,5.9558,5.9712,5.9641,5.9711,5.9711,5.9744,5.9742,5.9957,5.9765,5.9765,5.9765,5.9764,0,5.9242,5.9326,5.932,5.9378,5.9469,5.9455,5.9545,5.9556,5.9581,5.9638,5.9604,5.9657,5.9641,5.9692,5.9685,5.9768,5.9781,5.9781,5.9777,5.9783,5.9783,5.98,5.9789,5.977,5.9769,5.9768,5.9767,0,5.9406,5.9407,5.9505,5.9531,5.954,5.9606,5.9627,5.9679,5.9681,5.9753,5.9769,5.9771,5.983,5.9824,5.9889,5.9883,5.9987,5.9973,5.9977,5.9973,6.0042,6.0035,6.0275,6.0305,6.0095,6.0098,6.0099,0,5.9515,5.9579,5.9612,5.9648,5.9668,5.9727,5.9761,5.9748,5.9785,5.9825,5.9872,5.9928,5.9972,6.0067,6.0073,6.0122,6.0108,6.0188,6.0115,6.0117,6.0106,6.0102,6.0107,6.0202,6.0205,6.0207,6.0208,0,5.9707,5.9704,5.9756,5.9807,5.9849,5.9889,5.9925,5.9956,5.9946,5.9988,6.0048,6.0082,6.0149,6.0204,6.025,6.0264,6.0234,6.0232,6.025,6.0255,6.0254,6.0253,6.0014,6.0226,6.0224,6.0223,6.0222,6.0221,5.9846,5.9899,5.9931,5.9989,6.0015,6.0048,6.0098,6.0107,6.0157,6.0212,6.02,6.0267,6.0295,6.0354,6.0373,6.0424,6.0394,6.0421,6.0428,6.0434,6.0441,6.0248,6.0432,6.0432,6.0431,6.0431,6.043,0,6.0034,6.0052,6.0106,6.0157,6.0202,6.0171,6.0209,6.0248,6.0308,6.0337,6.0381,6.0449,6.0502,6.0512,6.0561,6.0599,6.0587,6.0613,6.0609,6.0612,6.0466,6.0444,6.0622,6.0622,6.0622,6.0622,6.0622,6.0622,6.0137,6.0226,6.0226,6.0325,6.0342,6.0409,6.0432,6.0462,6.0485,6.0563,6.0607,6.0614,6.0635,6.0685,6.0731,6.0732,6.0751,6.0782,6.0778,6.0642,6.0622,6.0604,6.0583,6.0787,6.0787,6.0919,6.092,6.0921]}]]